Location: Baix
(44.7118°N, 4.7648°E)
Time: 09:20:31
(UTC+00:00)

Vanguard 2 Rocket - Pass Details

Date: 03 December 2020
Orbit: 554 x 3325 km, 32.9° (Epoch: 21 January)

Event Time Altitude Azimuth Distance (km) Brightness Sun altitude
Rises 06:40:56 0° 237° (WSW) 6,687 11.0 -3.9°
Reaches altitude 10° 06:45:13 10° 233° (SW) 5,909 10.8 -3.2°
Maximum altitude 07:03:41 52° 165° (SSE) 3,835 10.5 -0.4°
Drops below altitude 10° 07:20:57 10° 96° (E) 5,577 12.1 2.2°
Sets 07:24:50 0° 92° (E) 6,307 12.3 2.8°
